Location: ??????????
(54.4061°N, 22.6114°E)
Time: 03:39:28
(UTC+00:00)

Cosmos 1898 Rocket - Pass Details

Date: 23 October 2019
Orbit: 753 x 784 km, 74.0° (Epoch: 18 November)

Event Time Altitude Azimuth Distance (km) Brightness Sun altitude
Rises 15:44:15 0° 334° (NNW) 3,250 6.9 -5.0°
Reaches altitude 10° 15:46:52 10° 344° (NNW) 2,326 6.1 -5.4°
Maximum altitude 15:51:37 33° 48° (NE) 1,298 4.3 -6.1°
Drops below altitude 10° 15:56:22 10° 112° (ESE) 2,332 5.5 -6.8°
Sets 15:59:00 0° 122° (ESE) 3,260 6.3 -7.1°
